Погода в Ильинском

Россия / Ивановская область     57°26′04″N   42°36′11″E
темп.,
°C
ветер,
м/с
пор.,
м/с
влажн.,
%
обл.,
%
осадки,
мм/ч
давл.,
гПа
погр.,
м
19 апреля, пн
пн1900:00+4всв4108090 0.0 1028622
03:00+1всв41180100 0.0 1029467
06:000всв41281100 0.0 1029485
09:00+3в596237 0.0 1029776
12:00+7в69475 0.0 10291451
15:00+8в68405 0.0 10291637
18:00+6в59493 0.0 10291299
21:00+2всв5126435 0.0 1030523
20 апреля, вт
вт2000:00+1в4137170 0.0 1030433
03:00−1в412732 0.0 1030367
06:000в4136454 0.0 1029442
09:00+5вюв5104826 0.0 1029721
12:00+9вюв69435 0.0 10271398
15:00+10вюв694329 0.0 10261665
18:00+8вюв51145100 0.0 10241287
21:00+5вюв5145049 0.0 1023737
21 апреля, ср
ср2100:00+3в61553100 0.0 1020702
03:00+3в61654100 0.0 1017772
06:00+1вюв71786100 1.4 1014924
09:00+1вюв71796100 3.6 1011935
12:00+2вюв81795100 1.0 1009972
15:00+4юв81692100 1.3 10081145
18:00+6ю61383100 0.4 10091237
21:00+4ю61285100 0.4 10121208
22 апреля, чт
чт2200:00+4ююз51086100 0.0 10131044
03:00+4ю41086100 0.1 1015583
06:00+3ююв3890100 0.1 1016272
09:00+6ю3877100 0.1 1016746
12:00+10ююз575791 0.1 10161757
15:00+11ююз475999 0.4 10161466
18:00+10ююз377115 0.3 1017425
21:00+5ю389259 0.3 1018161
23 апреля, пт
пт2300:00+6ю3108622 0.0 1019260
03:00+4ю398999 0.0 1019197
06:00+6ю310839 0.0 1020286
09:00+11ю47705 0.0 1020492
12:00+15ю575934 0.1 10191367
15:00+16ююз4655100 1.6 10181522
18:00+14юв496887 1.3 1017347
21:00+11ююв411806 1.8 1017333